Location: Caracas
(10.5000°N, 66.9170°W)
Time: 03:40:39
(UTC-04:00)

Tiangong 2 - Visible Passes

Search period start: 20 November 2017 00:00
Search period end: 30 November 2017 00:00
Orbit: 386 x 391 km, 42.8° (Epoch: 20 November)

Date Brightness Start Highest point End Pass type
(mag) Time Alt. Az. Time Alt. Az. Time Alt. Az.
21 Nov 4.2 05:41:55 10° S 05:44:11 18° SE 05:46:26 10° E visible
23 Nov 1.8 05:21:28 10° SSW 05:24:34 54° SE 05:27:41 10° ENE visible
24 Nov 4.2 04:27:46 16° ESE 04:27:46 16° ESE 04:28:53 10° E visible
24 Nov 2.7 06:00:56 10° W 06:03:10 18° NW 06:05:24 10° N visible
25 Nov 2.8 05:06:35 22° NNE 05:06:35 22° NNE 05:08:00 10° NNE visible
